When you browse on this site, cookies collect data to enhance your experience and personalize the content and advertising you see.
Visit our Privacy Policy to learn more. By continuing to use the site, you agree to this use of cookies and data.
  • In Hungary
  • List of Countries
  • For 7 days
  • Water Temperature
  • Satellite Maps
  • Weather Map
  • News
  • Weather Widgets
  • user-avatar
    Login

    Hourly Weather Wilnsdorf

    Today, 16 June, Sunday

    Time Temperature Precipitation Wind Pressure Humidity
    00:00 +12°C° 0 mm 1 mps 726 mmHg 88%
    01:00 +12°C° 0 mm 1 mps 727 mmHg 89%
    02:00 +11°C° 0 mm 0 mps 727 mmHg 84%
    03:00 +12°C° 0 mm 0 mps 727 mmHg 80%
    04:00 +13°C° 0 mm 0 mps 727 mmHg 76%
    05:00 +15°C° 0 mm 1 mps 728 mmHg 74%
    06:00 +15°C° 0 mm 1 mps 728 mmHg 73%
    07:00 +16°C° 0 mm 1 mps 728 mmHg 72%
    08:00 +17°C° 0 mm 2 mps 729 mmHg 67%
    09:00 +19°C° 0 mm 2 mps 729 mmHg 63%
    10:00 +20°C° 0 mm 3 mps 729 mmHg 58%
    11:00 +21°C° 0 mm 3 mps 729 mmHg 54%
    12:00 +21°C° 0 mm 3 mps 729 mmHg 50%
    13:00 +22°C° 0 mm 3 mps 729 mmHg 45%
    14:00 +22°C° 0.1 mm 3 mps 729 mmHg 48%
    15:00 +22°C° 0.1 mm 3 mps 729 mmHg 52%
    16:00 +22°C° 0.1 mm 3 mps 729 mmHg 55%
    17:00 +21°C° 0.2 mm 2 mps 729 mmHg 63%
    18:00 +20°C° 0.2 mm 2 mps 729 mmHg 72%
    19:00 +20°C° 0.2 mm 1 mps 729 mmHg 80%
    20:00 +18°C° 0 mm 1 mps 729 mmHg 84%
    21:00 +15°C° 0 mm 1 mps 729 mmHg 89%
    22:00 +12°C° 0 mm 0 mps 729 mmHg 93%
    23:00 +12°C° 0 mm 0 mps 729 mmHg 93%

    Tomorrow, 17 June, Monday

    Time Temperature Precipitation Wind Pressure Humidity
    00:00 +11°C° 0 mm 0 mps 729 mmHg 93%
    01:00 +11°C° 0 mm 0 mps 729 mmHg 94%
    02:00 +11°C° 0 mm 0 mps 729 mmHg 94%
    03:00 +11°C° 0 mm 0 mps 729 mmHg 94%
    04:00 +10°C° 0 mm 0 mps 729 mmHg 94%
    05:00 +12°C° 0 mm 0 mps 729 mmHg 89%
    06:00 +14°C° 0 mm 0 mps 729 mmHg 85%
    07:00 +16°C° 0 mm 0 mps 730 mmHg 81%
    08:00 +20°C° 0 mm 1 mps 730 mmHg 72%
    09:00 +21°C° 0 mm 1 mps 730 mmHg 63%
    10:00 +23°C° 0 mm 2 mps 729 mmHg 54%
    11:00 +24°C° 0 mm 2 mps 729 mmHg 51%
    12:00 +25°C° 0 mm 2 mps 729 mmHg 48%
    13:00 +25°C° 0 mm 2 mps 729 mmHg 45%
    14:00 +26°C° 0 mm 2 mps 728 mmHg 45%
    15:00 +26°C° 0 mm 1 mps 728 mmHg 46%
    16:00 +26°C° 0 mm 1 mps 728 mmHg 46%
    17:00 +25°C° 0 mm 1 mps 727 mmHg 54%
    18:00 +24°C° 0 mm 1 mps 727 mmHg 61%
    19:00 +23°C° 0 mm 1 mps 727 mmHg 68%
    20:00 +22°C° 0 mm 1 mps 727 mmHg 71%
    21:00 +20°C° 0 mm 1 mps 727 mmHg 74%
    22:00 +19°C° 0 mm 1 mps 727 mmHg 77%
    23:00 +18°C° 0 mm 1 mps 727 mmHg 81%

    Day after tomorrow, 18 June, Tuesday

    Time Temperature Precipitation Wind Pressure Humidity
    00:00 +16°C° 0 mm 1 mps 727 mmHg 85%
    01:00 +15°C° 0 mm 1 mps 726 mmHg 89%
    02:00 +15°C° 0 mm 1 mps 726 mmHg 90%
    03:00 +15°C° 0 mm 1 mps 726 mmHg 92%
    04:00 +13°C° 0 mm 0 mps 726 mmHg 94%
    05:00 +16°C° 0 mm 1 mps 726 mmHg 88%
    06:00 +19°C° 0 mm 1 mps 726 mmHg 82%
    07:00 +21°C° 0 mm 1 mps 727 mmHg 76%
    08:00 +21°C° 0.5 mm 1 mps 726 mmHg 78%
    09:00 +22°C° 0.5 mm 1 mps 726 mmHg 80%
    10:00 +23°C° 0.5 mm 1 mps 726 mmHg 82%
    11:00 +24°C° 0.9 mm 1 mps 726 mmHg 78%
    12:00 +24°C° 0.9 mm 1 mps 726 mmHg 75%
    13:00 +25°C° 0.9 mm 1 mps 725 mmHg 71%
    14:00 +25°C° 0.6 mm 1 mps 725 mmHg 68%
    15:00 +25°C° 0.6 mm 1 mps 725 mmHg 65%
    16:00 +24°C° 0.6 mm 0 mps 724 mmHg 62%
    17:00 +23°C° 0.4 mm 0 mps 724 mmHg 68%
    18:00 +22°C° 0.4 mm 0 mps 724 mmHg 74%
    19:00 +21°C° 0.4 mm 0 mps 724 mmHg 80%
    20:00 +19°C° 0.6 mm 0 mps 724 mmHg 84%
    21:00 +18°C° 0.6 mm 0 mps 724 mmHg 87%
    22:00 +18°C° 0.6 mm 1 mps 724 mmHg 90%
    23:00 +18°C° 0.1 mm 1 mps 723 mmHg 91%

    19 June, Wednesday

    Time Temperature Precipitation Wind Pressure Humidity
    00:00 +16°C° 0.1 mm 1 mps 723 mmHg 92%
    01:00 +16°C° 0.1 mm 1 mps 723 mmHg 94%
    02:00 +16°C° 0 mm 1 mps 723 mmHg 94%
    03:00 +14°C° 0 mm 0 mps 722 mmHg 93%
    04:00 +14°C° 0 mm 0 mps 722 mmHg 93%
    05:00 +15°C° 0 mm 0 mps 722 mmHg 92%
    06:00 +19°C° 0 mm 1 mps 722 mmHg 91%
    07:00 +20°C° 0 mm 1 mps 722 mmHg 91%
    08:00 +22°C° 0 mm 1 mps 722 mmHg 79%
    09:00 +24°C° 0 mm 2 mps 723 mmHg 66%
    10:00 +26°C° 0 mm 2 mps 723 mmHg 54%
    11:00 +27°C° 0 mm 2 mps 722 mmHg 50%
    12:00 +28°C° 0 mm 3 mps 722 mmHg 46%
    13:00 +29°C° 0 mm 3 mps 722 mmHg 41%
    14:00 +30°C° 0 mm 3 mps 722 mmHg 41%
    15:00 +30°C° 0 mm 3 mps 721 mmHg 41%
    16:00 +30°C° 0 mm 3 mps 721 mmHg 40%
    17:00 +29°C° 0 mm 3 mps 721 mmHg 48%
    18:00 +27°C° 0 mm 3 mps 721 mmHg 56%
    19:00 +26°C° 0 mm 2 mps 720 mmHg 64%
    20:00 +24°C° 0.5 mm 2 mps 721 mmHg 71%
    21:00 +21°C° 0.5 mm 2 mps 721 mmHg 79%
    22:00 +19°C° 0.5 mm 2 mps 721 mmHg 86%
    23:00 +18°C° 0.4 mm 2 mps 721 mmHg 90%

    20 June, Thursday

    Time Temperature Precipitation Wind Pressure Humidity
    00:00 +17°C° 0.4 mm 2 mps 721 mmHg 93%
    01:00 +16°C° 0.4 mm 1 mps 721 mmHg 97%
    02:00 +16°C° 0 mm 2 mps 722 mmHg 97%
    03:00 +15°C° 0 mm 2 mps 722 mmHg 97%
    04:00 +15°C° 0 mm 2 mps 722 mmHg 97%
    05:00 +14°C° 0 mm 3 mps 722 mmHg 95%
    06:00 +16°C° 0 mm 3 mps 722 mmHg 93%
    07:00 +17°C° 0 mm 4 mps 723 mmHg 91%
    08:00 +17°C° 0.1 mm 4 mps 723 mmHg 85%
    09:00 +18°C° 0.1 mm 4 mps 724 mmHg 79%
    10:00 +19°C° 0.1 mm 4 mps 724 mmHg 73%
    11:00 +19°C° 0.1 mm 4 mps 724 mmHg 69%
    12:00 +20°C° 0.1 mm 4 mps 724 mmHg 64%
    13:00 +21°C° 0.1 mm 3 mps 724 mmHg 60%
    14:00 +21°C° 0.2 mm 3 mps 724 mmHg 61%
    15:00 +22°C° 0.2 mm 3 mps 725 mmHg 62%
    16:00 +22°C° 0.2 mm 3 mps 725 mmHg 64%
    17:00 +21°C° 0.1 mm 2 mps 724 mmHg 68%
    18:00 +21°C° 0.1 mm 2 mps 724 mmHg 72%
    19:00 +21°C° 0.1 mm 1 mps 724 mmHg 77%
    20:00 +20°C° 0 mm 1 mps 724 mmHg 81%
    21:00 +18°C° 0 mm 1 mps 725 mmHg 85%
    22:00 +16°C° 0 mm 1 mps 725 mmHg 90%
    23:00 +15°C° 0 mm 0 mps 725 mmHg 90%

    21 June, Friday

    Time Temperature Precipitation Wind Pressure Humidity
    00:00 +14°C° 0 mm 0 mps 725 mmHg 91%
    01:00 +14°C° 0 mm 0 mps 725 mmHg 91%
    02:00 +14°C° 0.3 mm 0 mps 725 mmHg 93%
    03:00 +14°C° 0.3 mm 0 mps 725 mmHg 94%
    04:00 +14°C° 0.3 mm 0 mps 725 mmHg 96%
    05:00 +14°C° 0.4 mm 0 mps 725 mmHg 96%
    06:00 +14°C° 0.4 mm 0 mps 725 mmHg 96%
    07:00 +14°C° 0.4 mm 0 mps 725 mmHg 96%
    08:00 +16°C° 0.7 mm 1 mps 725 mmHg 94%
    09:00 +18°C° 0.7 mm 1 mps 725 mmHg 92%
    10:00 +19°C° 0.7 mm 1 mps 726 mmHg 89%
    11:00 +20°C° 1 mm 1 mps 725 mmHg 89%
    12:00 +20°C° 1 mm 1 mps 725 mmHg 88%
    13:00 +19°C° 1 mm 2 mps 725 mmHg 87%
    14:00 +19°C° 1.2 mm 2 mps 725 mmHg 86%
    15:00 +19°C° 1.2 mm 2 mps 725 mmHg 86%
    16:00 +19°C° 1.2 mm 2 mps 725 mmHg 85%
    17:00 +19°C° 0.4 mm 2 mps 725 mmHg 84%
    18:00 +18°C° 0.4 mm 2 mps 725 mmHg 84%
    19:00 +18°C° 0.4 mm 2 mps 725 mmHg 83%
    20:00 +16°C° 0 mm 2 mps 725 mmHg 85%
    21:00 +14°C° 0 mm 1 mps 726 mmHg 87%
    22:00 +13°C° 0 mm 1 mps 726 mmHg 89%
    23:00 +12°C° 0 mm 1 mps 726 mmHg 91%
    Show more